Location: Unspecified
(0.0000°N, 0.0000°E)
Time: 16:54:20
(UTC+01:00)

Cosmos 1954 Rocket - Visible Passes

Search period start: 20 February 2017 00:00
Search period end: 02 March 2017 00:00
Orbit: 752 x 782 km, 74.0° (Epoch: 19 February)

Date Brightness Start Highest point End Pass type
(mag) Time Alt. Az. Time Alt. Az. Time Alt. Az.
20 Feb 6.9 06:38:59 10° NE 06:42:11 16° ENE 06:45:23 10° ESE visible
21 Feb 6.6 20:15:10 10° SW 20:18:58 21° WNW 20:22:47 10° NNW visible
22 Feb 5.4 19:36:52 10° SSW 19:41:44 43° WNW 19:46:36 10° N visible
23 Feb 6.1 06:27:35 10° NNE 06:32:14 31° ENE 06:36:51 10° SE visible
24 Feb 6.9 05:52:01 10° NE 05:54:59 15° ENE 05:57:56 10° ESE visible
24 Feb 7.5 20:08:34 10° W 20:09:01 10° WNW 20:09:28 10° WNW visible
26 Feb 4.7 06:17:03 10° N 06:22:16 60° ENE 06:27:29 10° SSE visible
27 Feb 6.0 05:40:30 10° NNE 05:45:02 29° ENE 05:49:34 10° SE visible
28 Feb 6.9 05:05:06 10° NE 05:07:47 14° ENE 05:10:28 10° ESE visible
28 Feb 4.7 06:44:47 10° NW 06:49:32 34° WSW 06:54:18 10° SSW visible
01 Mar 3.9 06:07:02 10° NNW 06:12:19 71° WSW 06:17:35 10° S visible
